OK1MKH-8 Weather Reports


Display with metric or nautical units.
time (UTC)temp
F
wind
direction
speed
MPH
gust
MPH
rain 1hr
in
rain 24hr
in
rain mn
in
humidity
%
barometer
mb
20260906002730 55 -1 0.0 2.0 0.00 0.00 0.00 6 1018.7
20260906002229 55 -1 3.0 6.0 0.00 0.00 0.00 6 1018.8
20260906001728 55 -1 4.0 6.0 0.00 0.00 0.00 6 1018.8
20260906001227 55 -1 3.0 5.0 0.00 0.00 0.00 6 1018.8
20260906000726 55 -1 3.0 6.0 0.00 0.00 0.00 6 1018.7
20260906000226 55 -1 3.0 4.0 0.00 0.00 0.00 6 1018.6
20260905235724 55 -1 0.0 0.0 0.00 0.00 0.06 6 1018.5
20260905235223 55 -1 0.0 0.0 0.00 0.00 0.06 6 1018.4
20260905234722 55 -1 3.0 4.0 0.00 0.00 0.06 6 1018.4
20260905234221 55 -1 2.0 4.0 0.00 0.00 0.06 6 1018.4
20260905233719 55 -1 2.0 4.0 0.00 0.00 0.06 6 1018.4
20260905233218 54 -1 3.0 5.0 0.00 0.00 0.06 6 1018.4
20260905232717 54 -1 4.0 6.0 0.00 0.00 0.06 6 1018.4
20260905232216 55 -1 0.0 0.0 0.00 0.00 0.06 6 1018.3
20260905231715 55 -1 0.0 3.0 0.00 0.00 0.06 6 1018.3
20260905231214 56 -1 4.0 8.0 0.00 0.00 0.06 5 1018.2
20260905230713 56 -1 0.0 0.0 0.00 0.00 0.06 5 1018.2
20260905230212 55 -1 3.0 4.0 0.00 0.00 0.06 5 1018.1
20260905225711 55 -1 3.0 6.0 0.00 0.00 0.06 5 1018.1
20260905225210 55 -1 3.0 5.0 0.00 0.00 0.06 5 1018.1
20260905224709 56 -1 3.0 4.0 0.00 0.00 0.06 5 1018.1
20260905224208 56 -1 3.0 9.0 0.00 0.00 0.06 5 1018.1
20260905223707 56 -1 3.0 8.0 0.00 0.00 0.06 5 1018.0
20260905223206 56 -1 4.0 9.0 0.00 0.00 0.06 5 1018.0
20260905222705 56 -1 3.0 5.0 0.00 0.00 0.06 5 1018.0
20260905222204 56 -1 3.0 7.0 0.00 0.00 0.06 5 1018.0
20260905221703 56 -1 3.0 9.0 0.00 0.00 0.06 5 1018.0
20260905221202 56 -1 3.0 9.0 0.00 0.00 0.06 5 1017.9
20260905220701 56 -1 4.0 11.0 0.00 0.00 0.06 5 1017.9
20260905220200 56 -1 3.0 5.0 0.00 0.00 0.06 5 1017.9
20260905215659 56 -1 4.0 7.0 0.00 0.00 0.06 5 1018.0
20260905215158 56 -1 4.0 10.0 0.00 0.00 0.06 5 1018.0
20260905214657 56 -1 3.0 5.0 0.00 0.00 0.06 5 1017.8
20260905214156 56 -1 2.0 3.0 0.00 0.00 0.06 5 1017.8
20260905213655 56 -1 0.0 2.0 0.00 0.00 0.06 5 1017.9
20260905213154 56 -1 3.0 7.0 0.00 0.00 0.06 5 1017.9
20260905212653 56 -1 3.0 7.0 0.00 0.00 0.06 5 1017.8
20260905212152 56 -1 5.0 10.0 0.00 0.00 0.06 5 1017.8
20260905211651 57 -1 3.0 6.0 0.00 0.00 0.06 5 1017.7
20260905211150 56 -1 3.0 6.0 0.00 0.00 0.06 5 1017.7
20260905210649 56 -1 4.0 8.0 0.00 0.00 0.06 5 1017.6
20260905210148 56 -1 3.0 6.0 0.00 0.00 0.06 5 1017.6
20260905205647 56 -1 4.0 9.0 0.00 0.00 0.06 5 1017.6
20260905205146 56 -1 3.0 6.0 0.00 0.00 0.06 5 1017.5
20260905204645 56 -1 4.0 11.0 0.00 0.00 0.06 5 1017.5
20260905204144 57 -1 4.0 10.0 0.00 0.00 0.06 5 1017.4
20260905203642 57 -1 5.0 11.0 0.00 0.00 0.06 5 1017.3
20260905203141 57 -1 5.0 10.0 0.00 0.00 0.06 5 1017.3
20260905202640 57 -1 5.0 9.0 0.00 0.00 0.06 5 1017.2
20260905202139 57 -1 4.0 9.0 0.00 0.00 0.06 5 1017.1
20260905201638 57 -1 4.0 10.0 0.00 0.00 0.06 5 1017.0
20260905201137 57 -1 5.0 11.0 0.00 0.00 0.06 5 1016.8
20260905200636 58 -1 4.0 9.0 0.00 0.00 0.06 5 1016.7
20260905200135 58 -1 4.0 10.0 0.00 0.00 0.06 5 1016.6
20260905195634 58 -1 4.0 11.0 0.00 0.00 0.06 5 1016.5
20260905195133 58 -1 4.0 14.0 0.00 0.00 0.06 5 1016.5
20260905194632 58 -1 4.0 8.0 0.00 0.00 0.06 5 1016.5
20260905194131 57 -1 4.0 10.0 0.00 0.00 0.06 5 1016.5
20260905193630 57 -1 5.0 14.0 0.00 0.00 0.06 5 1016.6
20260905193129 57 -1 6.0 12.0 0.00 0.00 0.06 5 1016.6
20260905192628 57 -1 7.0 14.0 0.00 0.00 0.06 5 1016.5
20260905192127 57 -1 8.0 15.0 0.00 0.00 0.06 5 1016.4
20260905191626 57 -1 7.0 13.0 0.00 0.00 0.06 5 1016.4
20260905191125 57 -1 6.0 14.0 0.00 0.00 0.06 5 1016.3
20260905190624 57 -1 6.0 14.0 0.00 0.00 0.06 5 1016.2
20260905190123 58 -1 6.0 14.0 0.00 0.00 0.06 5 1016.2
20260905185622 57 -1 6.0 11.0 0.00 0.00 0.06 5 1016.1
20260905185121 59 -1 5.0 11.0 0.00 0.00 0.06 5 1016.0
20260905184619 58 -1 6.0 12.0 0.00 0.00 0.06 5 1016.0
20260905184118 59 -1 4.0 8.0 0.00 0.00 0.06 4 1015.8
20260905183617 59 -1 5.0 11.0 0.00 0.00 0.06 4 1015.6
20260905183116 59 -1 5.0 9.0 0.00 0.00 0.06 4 1015.6
20260905182615 60 -1 5.0 10.0 0.00 0.00 0.06 4 1015.5
20260905182114 60 -1 5.0 10.0 0.00 0.00 0.06 4 1015.5
20260905181613 59 -1 4.0 8.0 0.00 0.00 0.06 5 1015.5
20260905181112 60 -1 4.0 10.0 0.00 0.00 0.06 4 1015.2
20260905180611 60 -1 4.0 10.0 0.00 0.00 0.06 4 1015.2
20260905180110 60 -1 5.0 9.0 0.00 0.00 0.06 4 1015.2
20260905175609 60 -1 4.0 9.0 0.00 0.00 0.06 4 1015.0
20260905175108 60 -1 5.0 11.0 0.00 0.00 0.06 4 1015.0
20260905174607 60 -1 5.0 11.0 0.00 0.00 0.06 4 1014.9
20260905174106 61 -1 5.0 11.0 0.00 0.00 0.06 4 1014.7
20260905173605 61 -1 8.0 20.0 0.00 0.00 0.06 4 1014.5
20260905173104 62 -1 4.0 8.0 0.00 0.00 0.06 4 1014.3
20260905172603 63 -1 5.0 14.0 0.00 0.00 0.06 4 1014.1
20260905172101 64 -1 3.0 7.0 0.00 0.00 0.06 4 1013.9
20260905171600 64 -1 5.0 9.0 0.00 0.00 0.06 4 1013.8
20260905171059 64 -1 4.0 11.0 0.00 0.00 0.06 4 1013.8
20260905170558 63 -1 4.0 12.0 0.00 0.00 0.06 4 1013.9
20260905170057 63 -1 6.0 17.0 0.00 0.00 0.06 4 1013.7
20260905165556 63 -1 6.0 12.0 0.00 0.00 0.06 4 1013.7
20260905165055 65 -1 5.0 14.0 0.00 0.00 0.06 4 1013.4
20260905164554 66 -1 6.0 15.0 0.00 0.00 0.06 3 1013.0
20260905164053 68 -1 4.0 11.0 0.00 0.00 0.06 3 1012.6
20260905163552 67 -1 6.0 16.0 0.00 0.00 0.06 3 1012.8
20260905163051 70 -1 4.0 11.0 0.00 0.00 0.06 3 1012.1
20260905162550 73 -1 4.0 7.0 0.00 0.00 0.06 3 1011.5
20260905162049 72 -1 3.0 5.0 0.00 0.00 0.06 3 1011.6
20260905161548 72 -1 3.0 6.0 0.00 0.00 0.06 3 1011.5
20260905161047 71 -1 5.0 15.0 0.00 0.00 0.06 3 1011.6
20260905160546 74 -1 4.0 10.0 0.00 0.00 0.06 3 1010.9
20260905160045 72 -1 4.0 10.0 0.00 0.00 0.06 3 1011.3
20260905155544 72 -1 5.0 18.0 0.00 0.00 0.06 3 1011.2
20260905155043 72 -1 4.0 10.0 0.00 0.00 0.06 3 1011.3
20260905154542 72 -1 3.0 6.0 0.00 0.00 0.06 3 1011.1
20260905154041 71 -1 3.0 10.0 0.00 0.00 0.06 3 1011.2
20260905153540 69 -1 4.0 16.0 0.00 0.00 0.06 3 1011.7
20260905153039 68 -1 6.0 20.0 0.00 0.00 0.06 3 1011.8
20260905152538 69 -1 6.0 21.0 0.00 0.00 0.06 3 1011.5
20260905152037 70 -1 6.0 18.0 0.00 0.00 0.06 3 1011.4
20260905151536 69 -1 6.0 18.0 0.00 0.00 0.06 3 1011.4
20260905151035 69 -1 6.0 18.0 0.00 0.00 0.06 3 1011.4
20260905150534 69 -1 6.0 18.0 0.00 0.00 0.06 3 1011.4
20260905150032 71 -1 6.0 17.0 0.00 0.00 0.06 3 1011.1
20260905145531 74 -1 5.0 16.0 0.00 0.00 0.06 3 1010.5
20260905145030 72 -1 6.0 13.0 0.00 0.00 0.06 3 1010.8
20260905144529 70 -1 10.0 30.0 0.00 0.00 0.06 3 1011.1
20260905144028 68 -1 7.0 21.0 0.00 0.00 0.06 3 1011.4
20260905143527 67 -1 5.0 13.0 0.00 0.00 0.06 3 1011.6
20260905143026 67 -1 7.0 20.0 0.00 0.00 0.06 3 1011.6
20260905142525 66 -1 10.0 25.0 0.00 0.00 0.06 4 1011.9
20260905142024 67 -1 11.0 24.0 0.00 0.00 0.06 3 1011.6
20260905141523 67 -1 11.0 24.0 0.00 0.00 0.06 3 1011.6
20260905141022 67 -1 11.0 31.0 0.00 0.00 0.06 3 1011.6
20260905140521 68 -1 9.0 18.0 0.00 0.00 0.06 3 1011.5
20260905140020 66 -1 11.0 26.0 0.00 0.00 0.06 4 1011.9
20260905135519 69 -1 9.0 23.0 0.00 0.00 0.06 3 1011.1
20260905135018 69 -1 11.0 24.0 0.00 0.00 0.06 3 1011.2
20260905134517 69 -1 8.0 18.0 0.00 0.00 0.06 3 1011.2
20260905134016 70 -1 8.0 26.0 0.00 0.00 0.06 3 1011.0
20260905133515 69 -1 10.0 24.0 0.00 0.00 0.06 3 1011.0
20260905133014 69 -1 12.0 23.0 0.00 0.00 0.06 3 1011.0
20260905132513 69 -1 10.0 25.0 0.00 0.00 0.06 3 1011.1
20260905132012 69 -1 10.0 30.0 0.00 0.00 0.06 3 1011.0
20260905131511 68 -1 11.0 28.0 0.00 0.00 0.06 3 1011.1
20260905131010 69 -1 12.0 30.0 0.00 0.00 0.06 3 1011.0
20260905130509 69 -1 10.0 27.0 0.00 0.00 0.06 3 1011.2
20260905130008 69 -1 10.0 28.0 0.00 0.00 0.06 3 1011.2
20260905125507 69 -1 10.0 28.0 0.00 0.00 0.06 3 1011.2
20260905125006 67 -1 11.0 23.0 0.00 0.00 0.06 3 1011.4
20260905124505 67 -1 12.0 27.0 0.00 0.00 0.06 3 1011.5
20260905124004 67 -1 11.0 27.0 0.00 0.00 0.06 3 1011.5
20260905123503 68 -1 8.0 22.0 0.00 0.00 0.06 4 1011.5
20260905123002 67 -1 9.0 22.0 0.00 0.00 0.06 4 1011.6
20260905122501 68 -1 7.0 20.0 0.00 0.00 0.06 3 1011.6
20260905122000 70 -1 6.0 16.0 0.00 0.00 0.06 3 1011.0
20260905121458 68 -1 10.0 22.0 0.00 0.00 0.06 4 1011.5
20260905120957 69 -1 9.0 21.0 0.00 0.00 0.06 3 1011.3
20260905120456 68 -1 9.0 26.0 0.00 0.00 0.06 4 1011.3
20260905115955 68 -1 10.0 26.0 0.00 0.00 0.06 3 1011.4
20260905115454 67 -1 14.0 28.0 0.00 0.00 0.06 4 1011.6
20260905114953 66 -1 13.0 24.0 0.00 0.00 0.06 4 1011.7
20260905114452 66 -1 12.0 25.0 0.00 0.00 0.06 4 1011.7
20260905113951 69 -1 7.0 20.0 0.00 0.00 0.06 4 1011.3
20260905113450 68 -1 8.0 19.0 0.00 0.00 0.06 3 1011.4
20260905112949 67 -1 12.0 28.0 0.00 0.00 0.06 4 1011.7
20260905112448 67 -1 8.0 33.0 0.00 0.00 0.06 3 1011.6
20260905111947 66 -1 9.0 21.0 0.00 0.00 0.06 4 1011.9
20260905111446 64 -1 10.0 24.0 0.00 0.00 0.06 4 1012.4
20260905110945 68 -1 7.0 21.0 0.00 0.00 0.06 4 1011.5
20260905110444 65 -1 7.0 18.0 0.00 0.00 0.06 4 1012.2
20260905105943 62 -1 10.0 25.0 0.00 0.00 0.06 4 1012.7
20260905105442 62 -1 11.0 26.0 0.00 0.00 0.06 4 1012.6
20260905104941 63 -1 9.0 20.0 0.00 0.00 0.06 4 1012.5
20260905104440 62 -1 7.0 18.0 0.00 0.00 0.06 4 1012.6
20260905103939 65 -1 8.0 20.0 0.00 0.00 0.06 4 1012.1
20260905103437 65 -1 9.0 20.0 0.00 0.00 0.06 4 1012.1
20260905102936 63 -1 10.0 25.0 0.00 0.00 0.06 4 1012.3
20260905102435 65 -1 11.0 24.0 0.00 0.00 0.06 4 1011.8
20260905101934 63 -1 11.0 26.0 0.00 0.00 0.06 4 1012.3
20260905101433 64 -1 11.0 23.0 0.00 0.00 0.06 4 1012.2
20260905100932 63 -1 12.0 25.0 0.00 0.00 0.06 4 1012.5
20260905100431 64 -1 13.0 23.0 0.00 0.00 0.06 4 1012.3
20260905095930 64 -1 12.0 25.0 0.00 0.00 0.06 4 1012.2
20260905095429 64 -1 12.0 27.0 0.00 0.00 0.06 4 1012.1
20260905094928 64 -1 10.0 25.0 0.00 0.00 0.06 4 1012.1
20260905094427 64 -1 9.0 25.0 0.00 0.00 0.06 4 1012.0
20260905093926 62 -1 12.0 25.0 0.00 0.00 0.06 5 1012.4
20260905093425 63 -1 10.0 23.0 0.00 0.00 0.06 5 1012.2
20260905092924 64 -1 8.0 19.0 0.00 0.00 0.06 5 1012.1
20260905092423 62 -1 10.0 21.0 0.00 0.00 0.06 5 1012.3
20260905091922 62 -1 6.0 15.0 0.00 0.00 0.06 5 1012.3
20260905091421 60 -1 12.0 24.0 0.00 0.00 0.06 5 1012.8
20260905090920 61 -1 13.0 28.0 0.00 0.00 0.06 5 1012.5
20260905090419 61 -1 14.0 31.0 0.00 0.00 0.06 5 1012.5
20260905085918 61 -1 10.0 20.0 0.00 0.00 0.06 5 1012.4
20260905085417 61 -1 11.0 26.0 0.00 0.00 0.06 5 1012.5
20260905084916 60 -1 10.0 19.0 0.00 0.00 0.06 5 1012.8
20260905084415 61 -1 11.0 23.0 0.00 0.00 0.06 5 1012.6
20260905083914 61 -1 9.0 23.0 0.00 0.00 0.06 5 1012.5
20260905083413 62 -1 10.0 21.0 0.00 0.00 0.06 5 1012.4
20260905082912 61 -1 7.0 20.0 0.00 0.00 0.06 5 1012.6
20260905082411 60 -1 9.0 22.0 0.00 0.00 0.06 6 1012.7
20260905081910 59 -1 10.0 16.0 0.00 0.00 0.06 6 1012.8
20260905081409 59 -1 9.0 24.0 0.00 0.00 0.06 5 1012.9
20260905080908 60 -1 7.0 18.0 0.00 0.00 0.06 6 1012.8
20260905080407 59 -1 10.0 19.0 0.00 0.00 0.06 6 1012.9
20260905075906 59 -1 9.0 17.0 0.00 0.00 0.06 6 1012.9
20260905075405 59 -1 9.0 20.0 0.00 0.00 0.06 5 1012.8
20260905074903 60 -1 7.0 13.0 0.00 0.00 0.06 5 1012.5
20260905074402 59 -1 8.0 19.0 0.00 0.00 0.06 6 1012.6
20260905073901 59 -1 8.0 17.0 0.00 0.00 0.06 6 1012.5
20260905073400 58 -1 8.0 17.0 0.00 0.00 0.06 6 1012.6
20260905072859 59 -1 8.0 15.0 0.00 0.00 0.06 6 1012.6
20260905072358 58 -1 7.0 17.0 0.00 0.00 0.06 6 1012.6
20260905071857 59 -1 6.0 15.0 0.00 0.00 0.06 6 1012.3
20260905071356 60 -1 4.0 8.0 0.00 0.00 0.06 6 1012.0
20260905070855 60 -1 6.0 13.0 0.00 0.00 0.06 6 1012.0
20260905070354 58 -1 6.0 12.0 0.00 0.00 0.06 6 1012.2
20260905065853 59 -1 5.0 10.0 0.00 0.00 0.06 6 1012.1
20260905065352 57 -1 6.0 12.0 0.00 0.00 0.06 7 1012.5
20260905064851 57 -1 6.0 14.0 0.00 0.00 0.05 7 1012.6
20260905064350 58 -1 5.0 10.0 0.00 0.00 0.05 6 1012.4
20260905063849 58 -1 6.0 14.0 0.00 0.00 0.05 6 1012.4
20260905063348 58 -1 4.0 7.0 0.00 0.00 0.05 6 1012.4
20260905062847 57 -1 4.0 10.0 0.00 0.00 0.05 6 1012.4
20260905062346 56 -1 4.0 9.0 0.00 0.00 0.05 7 1012.5
20260905061845 56 202 5.0 8.0 0.00 0.00 0.05 7 1012.7
20260905061344 55 -1 5.0 10.0 0.00 0.00 0.05 7 1012.7
20260905060843 55 -1 4.0 9.0 0.00 0.00 0.05 7 1012.7
20260905060342 55 -1 5.0 8.0 0.00 0.00 0.05 7 1012.7
20260905055841 56 -1 4.0 8.0 0.00 0.00 0.05 7 1012.5
20260905055340 56 -1 4.0 8.0 0.00 0.00 0.05 7 1012.3
20260905054839 55 -1 5.0 9.0 0.00 0.00 0.05 7 1012.2
20260905054338 54 -1 5.0 10.0 0.00 0.00 0.05 7 1012.3
20260905053837 55 202 5.0 9.0 0.00 0.00 0.05 7 1012.2
20260905053336 55 -1 5.0 9.0 0.00 0.00 0.05 7 1012.1
20260905052835 54 -1 5.0 9.0 0.00 0.00 0.05 7 1012.1
20260905052334 55 -1 5.0 13.0 0.00 0.00 0.05 7 1011.8
20260905051833 54 -1 4.0 9.0 0.00 0.00 0.05 7 1011.8
20260905051332 53 270 6.0 11.0 0.00 0.00 0.05 8 1012.0
20260905050831 52 270 6.0 11.0 0.00 0.00 0.05 8 1012.1
20260905050330 51 270 5.0 10.0 0.00 0.00 0.05 8 1012.1
20260905045829 52 270 5.0 14.0 0.00 0.00 0.05 8 1011.9
20260905045328 52 292 5.0 11.0 0.00 0.00 0.05 8 1011.8
20260905044827 51 270 6.0 11.0 0.00 0.00 0.05 8 1011.9
20260905044326 51 270 8.0 19.0 0.00 0.00 0.05 8 1011.9
20260905043825 50 270 9.0 18.0 0.00 0.00 0.05 8 1011.9
20260905043323 51 315 8.0 18.0 0.00 0.00 0.05 8 1011.8
20260905042822 51 270 7.0 14.0 0.00 0.00 0.05 8 1011.8
20260905042321 51 315 6.0 13.0 0.00 0.00 0.05 8 1011.6
20260905041820 51 270 8.0 16.0 0.00 0.00 0.05 8 1011.8
20260905041319 51 292 8.0 16.0 0.00 0.00 0.05 8 1011.8
20260905040818 51 292 8.0 15.0 0.00 0.00 0.05 8 1011.3
20260905040317 52 270 8.0 16.0 0.00 0.00 0.05 8 1011.0
20260905035816 52 270 8.0 15.0 0.00 0.00 0.05 8 1010.9
20260905035315 52 315 8.0 15.0 0.00 0.00 0.05 8 1010.8
20260905034814 52 270 7.0 14.0 0.00 0.00 0.05 8 1010.7
20260905034313 52 247 6.0 14.0 0.00 0.00 0.05 8 1010.6
20260905033812 52 225 8.0 13.0 0.00 0.00 0.05 8 1010.3
20260905033311 53 247 6.0 14.0 0.00 0.00 0.05 8 1010.6
20260905032810 52 270 7.0 15.0 0.00 0.00 0.05 8 1011.2
20260905032309 52 292 8.0 16.0 0.00 0.00 0.05 8 1011.0
20260905031808 53 270 7.0 11.0 0.00 0.00 0.05 8 1010.9
20260905031307 53 225 6.0 11.0 0.00 0.00 0.05 8 1010.7
20260905030806 52 270 6.0 11.0 0.00 0.00 0.04 8 1011.1
20260905030305 53 -1 5.0 11.0 0.00 0.00 0.03 8 1010.9
20260905025804 53 -1 5.0 11.0 0.00 0.00 0.02 8 1011.2
20260905025306 53 -1 5.0 9.0 0.00 0.00 0.02 7 1011.6
20260905024802 53 -1 5.0 12.0 0.00 0.00 0.02 7 1011.4
20260905024301 53 -1 6.0 13.0 0.00 0.00 0.02 7 1011.6
20260905023800 53 -1 6.0 13.0 0.00 0.00 0.02 7 1011.2
20260905023259 52 -1 7.0 14.0 0.00 0.00 0.01 7 1011.2
20260905022758 53 -1 7.0 15.0 0.00 0.00 0.01 7 1011.1
20260905022257 53 -1 9.0 16.0 0.00 0.00 0.01 7 1011.1
20260905021756 54 -1 7.0 14.0 0.00 0.00 0.01 7 1010.7
20260905021255 54 -1 6.0 12.0 0.00 0.00 0.01 7 1010.7
20260905020754 54 -1 6.0 14.0 0.00 0.00 0.01 7 1011.0
20260905020253 54 -1 7.0 13.0 0.00 0.00 0.01 7 1010.8
20260905015752 55 -1 6.0 14.0 0.00 0.00 0.01 7 1010.7
20260905015251 55 -1 5.0 11.0 0.00 0.00 0.00 7 1010.5
20260905014750 56 -1 4.0 8.0 0.00 0.00 0.00 7 1010.2
20260905014249 57 -1 4.0 9.0 0.00 0.00 0.00 6 1010.0
20260905013748 58 -1 3.0 8.0 0.00 0.00 0.00 6 1009.8
20260905013247 57 -1 3.0 4.0 0.00 0.00 0.00 6 1010.0
20260905012746 57 -1 3.0 6.0 0.00 0.00 0.00 6 1009.8
20260905012245 55 -1 6.0 13.0 0.00 0.00 0.00 6 1010.4
20260905011744 55 -1 3.0 9.0 0.00 0.00 0.00 6 1010.3
20260905011243 55 -1 4.0 9.0 0.00 0.00 0.00 6 1009.7
20260905010742 56 -1 0.0 3.0 0.00 0.00 0.00 6 1009.6
20260905010241 56 -1 3.0 7.0 0.00 0.00 0.00 6 1009.3
20260905005739 57 -1 4.0 12.0 0.00 0.00 0.00 6 1009.3
20260905005238 58 -1 4.0 11.0 0.00 0.00 0.00 6 1008.9
20260905004737 58 -1 4.0 8.0 0.00 0.00 0.00 5 1009.0
20260905004236 58 -1 7.0 16.0 0.00 0.00 0.00 5 1009.0
20260905003735 58 -1 6.0 14.0 0.00 0.00 0.00 5 1009.0
20260905003234 57 -1 6.0 17.0 0.00 0.00 0.00 5 1009.2